Tianqi Xingzuo 1-21

operational
NORAD ID: 57795 Int'l Des: 2023-135 Owner: GUOG Country: CN Constellation: tianqi
LEOCIRCULAR

关于 Tianqi Xingzuo 1-21

正在加载描述...

实时位置

正在加载3D地球...

即将过境

高度历史

Altitude vs Time

uPlot chart will show altitude changes over time

两行轨道根数

1 57795U 23135D 25343.63605843 .00000483 00000-0 28283-3 0 9990
2 57795 49.9730 230.2684 0013819 321.4518 38.5407 14.23020962117632
Epoch: Dec 9, 2025 • Age: 6 hours

当前状态

高度 827.5 km
速度 7.44 km/s
星下点 -44.48°S, 63.32°E
发射日期 Sep 5, 2023
运行时间 2.2 years
类型 other

技术详情

分类 Payload
质量 40.00 kg
干质量 40.00 kg
总质量 40.00 kg
长度 0.50 m
直径 0.30 m
跨度 0.50 m
形状 Box
制造商 ASES
平台类型 StarLightB
阶段状态 In Orbit
所有者/国家 GUOG/CN

大型星座

Loading constellations...